Location: Ailly
(50.0793°N, 1.9944°E)
Time: 09:45:40
(UTC+00:00)

ATLAS 2AS CENTAUR R/B - Pass Details

Date: 15 January 2026
Orbit: 1050 x 1161 km, 63.7° (Epoch: 19 February)

Event Time Altitude Azimuth Distance (km) Brightness Sun altitude
Exits shadow 03:39:33 31° 25° (NNE) 1,766 4.0 -38.6°
Drops below altitude 10° 03:45:04 10° 80° (E) 2,868 5.7 -37.7°
Sets 03:48:03 0° 91° (E) 3,822 6.5 -37.2°
